�N����,����,�~����,�C��,���x,�C��,����,���ϕ���,�ő�u�ԕ���,�ő厞����,���˗�,�I�_���x,�n�����x,�ő啗���N��,DTYPE
"23/02/12","00:10",0.0,6.1,80.5,1018.7,328.5,3.0,4.7,336.4,0.00,3.0,8.1,"00:06:48",1
"23/02/12","00:20",0.0,6.1,80.9,1018.7,339.6,2.5,4.0,340.7,0.00,3.1,8.0,"00:15:12",1
"23/02/12","00:30",0.0,5.8,81.5,1019.0,332.6,3.0,4.2,335.7,0.00,2.9,8.1,"00:25:44",1
"23/02/12","00:40",0.0,5.5,82.0,1018.7,323.6,2.3,3.5,322.5,0.00,2.7,8.1,"00:36:46",1
"23/02/12","00:50",0.0,5.5,82.7,1018.5,328.9,2.3,3.6,338.8,0.00,2.8,8.2,"00:49:34",1
"23/02/12","01:00",0.0,5.5,83.1,1018.5,330.7,3.4,5.6,325.7,0.00,2.9,8.1,"00:55:04",1
"23/02/12","01:10",0.0,5.5,83.4,1018.7,325.6,3.5,5.0,325.5,0.00,3.0,7.8,"01:04:14",1
"23/02/12","01:20",0.0,5.5,83.5,1019.0,329.8,3.0,4.2,333.0,0.00,3.0,8.0,"01:11:38",1
"23/02/12","01:30",0.0,5.5,83.6,1018.5,321.7,2.5,4.0,338.8,0.00,3.0,7.8,"01:24:10",1
"23/02/12","01:40",0.0,5.6,83.5,1018.5,310.0,3.2,4.8,318.2,0.00,3.1,8.0,"01:37:14",1
"23/02/12","01:50",0.0,5.7,82.7,1018.2,321.4,4.1,6.2,321.5,0.00,3.0,7.8,"01:47:36",1
"23/02/12","02:00",0.0,5.7,82.0,1018.0,323.8,4.2,6.0,324.6,0.00,2.9,7.8,"01:52:48",1
"23/02/12","02:10",0.0,5.5,81.7,1018.0,316.8,3.4,5.4,322.1,0.00,2.7,8.0,"02:03:00",1
"23/02/12","02:20",0.0,5.4,81.8,1018.0,301.7,2.7,4.1,290.7,0.00,2.6,8.0,"02:18:10",1
"23/02/12","02:30",0.0,5.2,81.8,1017.8,322.2,1.8,3.7,306.1,0.00,2.4,7.8,"02:20:10",1
"23/02/12","02:40",0.0,4.3,82.7,1017.5,322.6,2.2,3.2,333.4,0.00,1.7,7.7,"02:31:48",1
"23/02/12","02:50",0.0,4.2,84.0,1017.3,312.2,2.1,3.5,308.8,0.00,1.8,7.7,"02:48:14",1
"23/02/12","03:00",0.0,4.3,84.8,1017.5,323.0,2.6,4.8,318.0,0.00,2.0,7.9,"02:51:52",1
"23/02/12","03:10",0.0,4.1,85.1,1017.5,308.5,2.0,3.1,313.8,0.00,1.9,7.7,"03:00:36",1
"23/02/12","03:20",0.0,3.7,85.6,1017.5,332.7,1.0,2.2,321.3,0.00,1.6,7.7,"03:12:04",1
"23/02/12","03:30",0.0,2.9,86.4,1017.5,325.6,2.3,2.7,326.4,0.00,0.9,7.7,"03:23:04",1
"23/02/12","03:40",0.0,2.5,87.3,1017.5,315.0,1.7,2.0,323.0,0.00,0.6,7.7,"03:37:12",1
"23/02/12","03:50",0.0,2.7,88.1,1017.5,294.4,1.7,2.6,312.7,0.00,1.0,7.6,"03:48:34",1
"23/02/12","04:00",0.0,3.1,88.9,1017.5,276.9,2.0,2.8,298.9,0.00,1.5,7.6,"03:52:02",1
"23/02/12","04:10",0.0,3.2,89.3,1017.3,291.7,2.0,2.7,303.8,0.00,1.7,7.4,"04:00:34",1
"23/02/12","04:20",0.0,3.0,89.4,1017.5,322.8,2.1,2.6,301.3,0.00,1.5,7.4,"04:10:38",1
"23/02/12","04:30",0.0,2.3,89.9,1017.5,300.6,1.6,2.0,310.9,0.00,0.9,7.6,"04:28:10",1
"23/02/12","04:40",0.0,2.8,90.5,1017.1,295.8,2.2,3.4,325.9,0.00,1.4,7.6,"04:38:04",1
"23/02/12","04:50",0.0,3.0,90.4,1017.1,315.4,2.0,2.9,306.3,0.00,1.6,7.6,"04:40:08",1
"23/02/12","05:00",0.0,2.3,90.6,1016.8,323.3,1.5,1.9,342.1,0.00,1.0,6.9,"04:55:36",1
"23/02/12","05:10",0.0,2.0,90.9,1017.3,255.8,0.6,1.6,319.5,0.00,0.7,7.3,"05:01:00",1
"23/02/12","05:20",0.0,1.7,91.1,1016.8,288.0,1.0,1.4,308.4,0.00,0.4,7.3,"05:13:20",1
"23/02/12","05:30",0.0,1.9,91.5,1017.1,296.5,1.1,1.8,293.7,0.00,0.7,7.3,"05:29:14",1
"23/02/12","05:40",0.0,1.7,91.6,1017.3,313.8,1.8,2.5,317.9,0.00,0.5,7.3,"05:34:22",1
"23/02/12","05:50",0.0,1.8,92.2,1017.1,288.1,1.3,2.5,330.0,0.00,0.7,7.2,"05:48:08",1
"23/02/12","06:00",0.0,1.8,92.1,1017.3,314.0,2.2,3.1,319.3,0.00,0.7,7.2,"05:55:20",1
"23/02/12","06:10",0.0,1.4,92.6,1016.6,308.3,1.7,2.6,320.3,0.00,0.4,7.3,"06:01:18",1
"23/02/12","06:20",0.0,1.9,92.9,1017.1,331.6,2.1,3.1,334.9,0.00,0.9,7.1,"06:15:32",1
"23/02/12","06:30",0.0,1.8,93.0,1016.4,300.5,1.3,2.2,333.7,0.00,0.8,7.1,"06:20:08",1
"23/02/12","06:40",0.0,1.6,93.3,1016.8,299.3,1.2,2.8,320.9,0.00,0.7,7.1,"06:38:14",1
"23/02/12","06:50",0.0,1.5,93.6,1016.6,319.5,1.6,2.1,338.6,0.00,0.6,7.2,"06:42:08",1
"23/02/12","07:00",0.0,1.2,93.8,1016.6,278.4,0.7,2.0,319.8,0.00,0.4,7.0,"06:56:18",1
"23/02/12","07:10",0.0,1.2,94.1,1016.8,323.1,2.0,2.6,334.6,0.00,0.4,6.9,"07:08:32",1
"23/02/12","07:20",0.0,1.1,94.3,1016.6,308.2,1.5,2.1,327.0,0.00,0.3,6.7,"07:14:08",1
"23/02/12","07:30",0.0,0.9,94.6,1017.1,289.6,1.0,1.4,288.3,0.00,0.2,7.2,"07:20:08",1
"23/02/12","07:40",0.0,1.5,94.8,1017.3,314.0,1.1,2.1,343.8,0.00,0.8,7.0,"07:35:52",1
"23/02/12","07:50",0.0,1.7,94.9,1017.3,313.4,0.5,1.8,322.6,0.00,1.0,6.8,"07:45:04",1
"23/02/12","08:00",0.0,1.5,95.1,1018.0,306.1,1.5,2.0,326.5,0.00,0.8,6.9,"07:59:18",1
"23/02/12","08:10",0.0,1.7,95.4,1018.0,312.6,1.7,2.1,327.4,0.00,1.1,6.8,"08:01:42",1
"23/02/12","08:20",0.0,2.3,95.5,1018.0,319.9,1.7,2.6,334.8,0.01,1.7,6.7,"08:18:42",1
"23/02/12","08:30",0.0,3.1,95.5,1018.2,301.7,2.0,2.4,324.4,0.02,2.5,6.6,"08:21:12",1
"23/02/12","08:40",0.0,4.4,95.3,1018.5,258.5,0.8,1.6,293.1,0.04,3.8,6.9,"08:30:08",1
"23/02/12","08:50",0.0,4.8,94.7,1018.5,181.8,0.6,1.0,269.5,0.06,4.1,7.0,"08:41:12",1
"23/02/12","09:00",0.0,5.3,94.4,1018.5,337.3,1.3,2.5,343.6,0.09,4.5,6.8,"08:54:40",1
"23/02/12","09:10",0.0,6.1,93.9,1018.7,304.1,1.2,2.0,311.6,0.11,5.2,6.7,"09:03:04",1
"23/02/12","09:20",0.0,6.9,92.9,1019.4,307.6,0.6,1.2,317.5,0.13,5.9,6.8,"09:10:16",1
"23/02/12","09:30",0.0,7.4,90.8,1019.4,243.1,0.5,0.9,306.1,0.16,6.0,6.6,"09:20:16",1
"23/02/12","09:40",0.0,7.9,88.6,1019.4,194.6,0.3,0.9,159.4,0.18,6.2,6.8,"09:37:38",1
"23/02/12","09:50",0.0,8.3,85.4,1019.2,165.3,0.7,1.7,109.2,0.21,6.0,6.8,"09:44:42",1
"23/02/12","10:00",0.0,9.1,81.0,1019.4,190.6,0.7,1.2,159.2,0.23,6.1,6.7,"09:50:40",1
"23/02/12","10:10",0.0,9.8,76.2,1019.4,229.7,1.0,1.4,213.2,0.25,5.9,6.7,"10:04:48",1
"23/02/12","10:20",0.0,10.4,72.7,1019.0,240.5,0.5,1.2,177.4,0.28,5.8,6.9,"10:10:08",1
"23/02/12","10:30",0.0,11.1,70.0,1019.7,233.5,0.5,1.4,124.8,0.30,5.9,7.0,"10:28:48",1
"23/02/12","10:40",0.0,11.2,68.0,1019.2,184.2,0.7,1.4,201.3,0.32,5.6,6.9,"10:36:48",1
"23/02/12","10:50",0.0,12.0,65.1,1019.0,286.5,0.6,1.2,127.0,0.34,5.7,7.1,"10:44:24",1
"23/02/12","11:00",0.0,12.4,64.3,1018.7,239.6,0.8,2.0,132.2,0.36,5.9,7.1,"10:59:20",1
"23/02/12","11:10",0.0,13.0,61.6,1018.5,239.5,0.6,1.3,191.6,0.37,5.8,7.2,"11:03:04",1
"23/02/12","11:20",0.0,13.4,58.9,1018.7,193.8,1.0,2.0,213.2,0.39,5.6,7.2,"11:11:04",1
"23/02/12","11:30",0.0,13.8,58.5,1018.7,204.6,1.1,2.4,205.7,0.41,5.9,7.5,"11:25:52",1
"23/02/12","11:40",0.0,14.4,58.2,1018.0,187.0,0.8,2.0,146.0,0.42,6.3,7.3,"11:39:36",1
"23/02/12","11:50",0.0,14.4,58.0,1017.3,154.3,0.7,1.7,153.3,0.43,6.3,7.4,"11:40:08",1
"23/02/12","12:00",0.0,14.6,58.7,1017.3,140.8,1.1,2.9,123.0,0.44,6.7,7.7,"11:51:44",1
"23/02/12","12:10",0.0,14.9,58.7,1017.3,159.3,1.2,2.8,113.5,0.44,6.9,7.5,"12:07:14",1
"23/02/12","12:20",0.0,14.9,58.1,1016.8,133.8,1.1,2.6,129.9,0.45,6.8,7.6,"12:19:44",1
"23/02/12","12:30",0.0,15.4,58.4,1016.8,207.7,1.3,2.7,147.2,0.46,7.3,7.9,"12:23:28",1
"23/02/12","12:40",0.0,15.6,57.9,1016.6,150.5,1.1,2.9,113.5,0.46,7.4,8.0,"12:35:44",1
"23/02/12","12:50",0.0,15.6,57.7,1016.4,142.8,1.6,3.4,129.1,0.46,7.3,8.0,"12:42:32",1
"23/02/12","13:00",0.0,16.1,55.6,1016.4,191.4,1.3,2.5,172.6,0.44,7.3,8.2,"12:58:40",1
"23/02/12","13:10",0.0,16.9,55.5,1016.4,226.2,1.1,2.4,156.5,0.45,8.0,8.2,"13:08:08",1
"23/02/12","13:20",0.0,16.9,55.0,1015.9,191.6,1.5,3.4,131.8,0.48,7.9,8.2,"13:11:36",1
"23/02/12","13:30",0.0,17.1,53.6,1015.4,184.2,1.5,2.8,201.6,0.45,7.7,8.7,"13:24:08",1
"23/02/12","13:40",0.0,16.8,56.0,1015.2,210.7,1.6,2.7,215.1,0.35,8.0,8.4,"13:31:28",1
"23/02/12","13:50",0.0,17.0,55.2,1015.2,187.0,1.8,3.9,129.8,0.40,8.0,8.7,"13:46:56",1
"23/02/12","14:00",0.0,17.6,54.0,1014.9,265.4,1.1,2.2,119.2,0.43,8.2,8.9,"13:50:08",1
"23/02/12","14:10",0.0,17.1,54.5,1014.5,103.1,1.3,3.5,120.8,0.33,7.9,9.0,"14:05:04",1
"23/02/12","14:20",0.0,17.6,53.9,1014.9,355.8,1.2,2.5,339.1,0.35,8.2,9.1,"14:11:44",1
"23/02/12","14:30",0.0,17.4,53.7,1014.7,64.2,1.6,3.9,117.4,0.38,8.0,9.2,"14:27:20",1
"23/02/12","14:40",0.0,17.4,54.8,1014.5,118.0,1.8,3.4,138.5,0.34,8.3,9.2,"14:39:12",1
"23/02/12","14:50",0.0,17.7,51.3,1014.5,111.3,1.8,4.1,122.2,0.37,7.6,9.5,"14:46:32",1
"23/02/12","15:00",0.0,17.4,53.2,1013.8,113.2,1.7,3.7,110.2,0.24,7.8,9.5,"14:53:52",1
"23/02/12","15:10",0.0,17.0,53.2,1014.2,117.9,1.5,3.7,119.9,0.12,7.5,9.6,"15:01:28",1
"23/02/12","15:20",0.0,17.8,53.6,1014.2,58.3,1.0,3.1,113.8,0.27,8.3,9.6,"15:12:40",1
"23/02/12","15:30",0.0,18.0,52.0,1014.0,103.7,1.3,2.9,125.6,0.29,8.0,9.6,"15:27:44",1
"23/02/12","15:40",0.0,18.0,52.2,1014.2,122.9,1.3,3.2,120.3,0.26,8.1,9.7,"15:32:48",1
"23/02/12","15:50",0.0,18.2,51.3,1014.2,35.9,1.3,3.4,115.9,0.26,8.0,10.0,"15:40:40",1
"23/02/12","16:00",0.0,18.2,51.6,1014.2,98.6,1.6,3.1,117.4,0.23,8.1,10.0,"15:52:32",1
"23/02/12","16:10",0.0,18.1,51.3,1013.8,104.5,1.5,3.9,129.5,0.21,7.9,10.0,"16:08:08",1
"23/02/12","16:20",0.0,17.8,50.4,1013.5,108.2,2.0,4.9,120.1,0.16,7.4,9.9,"16:18:56",1
"23/02/12","16:30",0.0,17.7,48.5,1013.8,144.1,2.2,4.1,113.2,0.15,6.8,10.0,"16:20:16",1
"23/02/12","16:40",0.0,17.4,49.0,1013.0,169.1,2.6,5.1,165.7,0.13,6.6,10.2,"16:33:12",1
"23/02/12","16:50",0.0,17.2,50.0,1013.0,152.6,2.6,5.0,128.3,0.09,6.7,10.4,"16:49:12",1
"23/02/12","17:00",0.0,16.8,51.2,1012.8,161.9,2.7,4.2,124.8,0.08,6.7,10.2,"16:51:44",1
"23/02/12","17:10",0.0,16.6,51.5,1013.3,175.9,2.2,3.4,143.8,0.06,6.6,10.2,"17:04:32",1
"23/02/12","17:20",0.0,16.4,52.0,1013.0,152.8,2.3,4.1,136.6,0.04,6.6,10.2,"17:14:56",1
"23/02/12","17:30",0.0,16.0,52.4,1013.8,176.2,1.5,2.8,179.3,0.02,6.3,10.2,"17:21:04",1
"23/02/12","17:40",0.0,15.7,53.0,1013.5,171.5,1.6,3.2,198.8,0.01,6.2,10.3,"17:33:14",1
"23/02/12","17:50",0.0,15.3,55.5,1013.3,200.8,1.5,2.8,240.6,0.00,6.5,10.3,"17:46:40",1
"23/02/12","18:00",0.0,14.9,57.3,1013.3,222.5,1.1,2.9,191.2,0.00,6.6,10.4,"17:50:32",1
"23/02/12","18:10",0.0,14.5,59.0,1013.0,246.3,0.7,1.8,248.3,0.00,6.6,10.1,"18:02:24",1
"23/02/12","18:20",0.0,14.3,60.8,1012.3,247.8,1.5,1.9,212.4,0.00,6.9,10.3,"18:10:48",1
"23/02/12","18:30",0.0,13.6,63.6,1012.8,305.4,1.3,2.5,331.9,0.00,6.9,10.2,"18:25:14",1
"23/02/12","18:40",0.0,12.8,66.5,1013.0,304.7,1.2,1.4,320.8,0.00,6.8,10.3,"18:30:24",1
"23/02/12","18:50",0.0,12.2,69.4,1013.8,295.6,1.7,2.1,302.7,0.00,6.8,10.4,"18:43:14",1
"23/02/12","19:00",0.0,11.9,71.3,1013.5,317.7,2.2,2.8,306.4,0.00,6.9,10.3,"18:51:56",1
"23/02/12","19:10",0.0,11.5,72.7,1013.5,314.5,2.1,2.8,317.1,0.00,6.8,10.2,"19:09:50",1
"23/02/12","19:20",0.0,11.2,74.0,1013.8,296.4,2.1,2.5,317.0,0.00,6.8,10.2,"19:10:32",1
"23/02/12","19:30",0.0,11.3,74.9,1013.3,303.6,2.2,2.7,297.4,0.00,7.1,10.1,"19:21:00",1
"23/02/12","19:40",0.0,11.3,75.7,1014.0,296.7,2.1,3.1,297.5,0.00,7.2,10.1,"19:32:42",1
"23/02/12","19:50",0.0,11.1,76.3,1013.5,307.8,2.0,2.6,308.8,0.00,7.1,9.9,"19:40:36",1
"23/02/12","20:00",0.0,11.0,77.0,1013.3,315.4,2.3,3.3,311.0,0.00,7.2,9.9,"19:56:28",1
"23/02/12","20:10",0.0,10.8,77.7,1012.6,321.2,1.8,2.1,320.0,0.00,7.1,10.0,"20:05:16",1
"23/02/12","20:20",0.0,10.4,79.1,1012.3,314.6,1.7,2.1,321.6,0.00,7.0,10.1,"20:15:22",1
"23/02/12","20:30",0.0,10.4,80.6,1012.8,301.5,2.2,3.4,312.7,0.00,7.3,9.8,"20:28:20",1
"23/02/12","20:40",0.0,10.6,80.9,1012.6,323.3,2.1,3.4,319.4,0.00,7.5,9.9,"20:30:36",1
"23/02/12","20:50",0.0,10.2,81.5,1012.8,320.9,1.8,2.4,320.9,0.00,7.2,9.9,"20:44:48",1
"23/02/12","21:00",0.0,10.1,82.4,1013.0,288.9,2.1,3.2,282.2,0.00,7.3,9.7,"20:58:02",1
"23/02/12","21:10",0.0,10.1,82.5,1013.0,315.5,2.0,2.7,323.8,0.00,7.3,9.8,"21:04:12",1
"23/02/12","21:20",0.0,9.6,83.0,1012.8,323.9,2.0,2.7,315.7,0.00,6.9,9.8,"21:15:36",1
"23/02/12","21:30",0.0,9.7,83.8,1012.8,293.5,2.3,3.5,310.2,0.00,7.1,9.6,"21:23:28",1
"23/02/12","21:40",0.0,9.8,84.2,1013.0,314.9,2.3,3.5,332.8,0.00,7.3,9.7,"21:33:36",1
"23/02/12","21:50",0.0,9.8,84.5,1012.8,305.0,1.8,2.4,323.8,0.00,7.4,9.8,"21:42:40",1
"23/02/12","22:00",0.0,9.7,84.7,1012.8,305.3,1.6,2.0,318.7,0.00,7.3,9.7,"21:50:40",1
"23/02/12","22:10",0.0,9.3,85.2,1012.6,324.4,1.7,2.6,309.0,0.00,7.0,9.6,"22:01:52",1
"23/02/12","22:20",0.0,9.2,85.8,1012.6,313.7,1.6,2.2,309.2,0.00,7.0,9.6,"22:15:36",1
"23/02/12","22:30",0.0,9.0,86.3,1013.0,291.5,1.2,2.1,323.2,0.00,6.9,9.5,"22:29:36",1
"23/02/12","22:40",0.0,9.2,86.8,1012.8,311.6,2.0,2.8,318.9,0.00,7.2,9.4,"22:32:00",1
"23/02/12","22:50",0.0,9.2,87.1,1012.6,306.0,1.5,2.0,313.4,0.00,7.2,9.4,"22:48:24",1
"23/02/12","23:00",0.0,9.1,87.3,1013.0,320.1,2.1,3.2,320.0,0.00,7.1,9.6,"22:56:00",1
"23/02/12","23:10",0.0,9.4,87.3,1013.0,299.8,2.7,4.3,312.0,0.00,7.4,9.6,"23:09:10",1
"23/02/12","23:20",0.0,9.7,86.5,1012.1,322.1,2.8,4.2,311.0,0.00,7.6,9.4,"23:10:32",1
"23/02/12","23:30",0.0,9.8,85.4,1011.9,311.8,2.7,3.9,324.2,0.00,7.5,9.2,"23:22:50",1
"23/02/12","23:40",0.0,9.9,84.5,1011.9,290.1,2.1,2.9,305.7,0.00,7.5,9.6,"23:37:12",1
"23/02/12","23:50",0.0,9.9,83.8,1012.1,301.6,2.2,3.6,318.6,0.00,7.3,9.4,"23:46:24",1
"23/02/12","24:00",0.0,10.0,82.6,1011.9,323.2,3.2,4.3,335.2,0.00,7.2,9.4,"23:59:04",1
